Date,TemperatureHighF,TemperatureAvgF,TemperatureLowF,DewpointHighF,DewpointAvgF,DewpointLowF,HumidityHigh,HumidityAvg,HumidityLow,PressureMaxIn,PressureMinIn,WindSpeedMaxMPH,WindSpeedAvgMPH,GustSpeedMaxMPH,PrecipitationSumIn
2013-3-1,57,47,38,38,32,26,66,55,46,29.71,29.62,7,0,7,0.00
2013-3-2,60,42,30,38,28,21,69,58,42,29.69,29.30,8,0,8,0.00
2013-3-3,44,35,22,33,22,13,82,61,39,29.44,29.13,15,2,15,0.00
2013-3-4,28,22,9,19,14,0,82,71,63,29.72,29.44,7,1,7,0.00
2013-3-5,40,30,7,25,18,-1,72,61,53,29.58,29.34,7,1,7,0.06
2013-3-6,45,36,24,30,25,15,72,63,54,29.22,29.11,5,0,5,0.00
2013-3-7,49,40,26,29,23,17,70,52,38,29.45,29.18,9,2,9,0.00
2013-3-8,45,36,18,25,19,9,68,51,40,29.41,29.28,7,1,7,0.00
2013-3-9,43,31,20,25,17,9,65,55,43,29.63,29.38,7,0,7,0.00
2013-3-10,53,36,21,28,19,11,67,53,32,29.69,29.47,7,0,7,0.00
2013-3-11,45,37,26,24,20,14,60,51,40,29.62,29.46,14,2,14,0.00
2013-3-12,52,40,25,34,25,14,66,56,47,29.62,29.44,8,0,8,0.00
2013-3-13,59,48,39,35,29,25,59,49,40,29.57,29.47,6,0,4,0.00
2013-3-14,65,53,32,41,34,22,66,49,38,29.58,29.36,14,0,14,0.00
2013-3-15,57,50,36,34,29,23,62,45,37,29.50,29.37,10,2,10,0.00
2013-3-16,54,46,34,32,27,19,65,48,35,29.36,29.06,8,0,8,1.41
2013-3-17,40,34,25,26,19,11,83,56,42,29.29,28.99,14,3,14,0.00
2013-3-18,42,31,22,20,15,10,60,52,38,29.36,29.27,18,2,18,0.00
2013-3-19,43,32,22,19,14,8,63,50,33,29.66,29.36,9,1,9,0.00
2013-3-20,57,41,24,34,23,8,60,49,40,29.43,28.98,14,1,14,0.00
2013-3-21,40,34,23,24,16,8,60,48,35,29.33,29.10,13,2,13,0.00
2013-3-22,33,25,19,17,10,6,64,54,47,29.52,29.31,8,1,8,0.00
2013-3-23,34,22,10,14,7,-1,62,52,40,29.66,29.52,7,0,7,0.00
2013-3-24,34,22,8,14,6,-2,65,52,36,29.68,29.53,6,0,6,0.00
2013-3-25,44,27,12,18,9,0,59,46,29,29.57,29.36,11,1,11,0.00
2013-3-26,54,42,29,29,21,14,54,43,33,29.53,29.31,7,1,24,0.00
2013-3-27,57,38,23,33,21,11,62,50,38,29.48,29.35,9,1,9,0.00
2013-3-28,59,43,28,38,28,17,68,55,41,29.51,29.40,8,0,8,0.00
2013-3-29,58,45,33,38,30,23,67,55,38,29.60,29.47,9,1,9,0.00
2013-3-30,57,43,32,33,26,18,68,52,34,29.68,29.49,7,1,7,0.00
2013-3-31,55,41,27,32,23,16,66,50,38,29.59,29.44,16,1,16,0.00